Regional Weather Roundup
Issued by NWS

Home | Current Version | Previous Version | Text Only | Print | Product List | Glossary On
Versions: 1 2 3 4 5 6 7 8 9 10 11 12 13 14 15 16 17 18 19 20 21 22 23 24 25 26 27 28 29 30 31 32 33 34 35 36 37 38 39 40 41 42 43 44 45 46 47 48 49 50
000
ASUS44 KLIX 042212
RWRLA
LOUISIANA WEATHER ROUNDUP
NATIONAL WEATHER SERVICE NEW ORLEANS LA
500 PM CDT TUE AUG 04 2015

NOTE: "FAIR" INDICATES FEW OR NO CLOUDS BELOW 12,000 FEET WITH NO
      SIGNIFICANT WEATHER AND/OR OBSTRUCTIONS TO VISIBILITY.
      SKY/WX - SKY CONDITION AND SIGNIFICANT WEATHER.
      TMP - AIR TEMPERATURE.    DP   - DEWPOINT TEMPERATURE.
      RH  - RELATIVE HUMIDITY.  PRES - PRESSURE.
      HX  - HEAT INDEX.         WCI  - WIND CHILL INDEX.

*  THESE STATIONS ARE NOT NWS OR FAA STATIONS AND ARE NOT UNDER
   NWS QUALITY CONTROL.

LAZ040-048-061>063-065-066-069-042300-
SOUTHEAST LOUISIANA

CITY           SKY/WX    TMP DP  RH WIND       PRES   REMARKS
N.O. AUDUBON     N/A     90 N/A N/A MISG        N/A
N.O. INTL ARPT MOSUNNY   90  75  61 NE12      29.94S HX 100
N.O. LAKEFRONT CLOUDY    86  76  71 SE3       29.95S HX  96
N.O. DOWNTOWN* CLOUDY    90  79  70 SE3       29.95S HX 105
RESERVE*       FAIR      92  75  57 N8        29.94S HX 103
SLIDELL        PTSUNNY   89  77  67 SE9       29.95S HX 101
BATON ROUGE    MOSUNNY   97  69  40 CALM      29.93F HX 103
BOOTHVILLE     PTSUNNY   88  74  63 S14G20    29.98S HX  96
BELLE CHASSE   PTSUNNY   85  79  82 S7        29.95R THUNDER HX  98
BOGALUSA*        N/A     91  75  60 S3        29.97F HX 102
GALLIANO*      MOCLDY    86  76  71 MISG      29.95S THUNDER HX  96
NEW ROADS*     FAIR     N/A N/A N/A N3        29.93F
GONZALES*      FAIR      94  74  52 E5        29.93S HX 104
HAMMOND*       MOSUNNY   93  72  49 SE7       29.96S HX 100
HOUMA*         TSTM      77  73  88 W12       29.97R
PORT FOURCHON* CLEAR     88  75  66 SW15G21   29.97S HX  97

$$

LAZ041-044-053-054-042300-
SOUTHWEST LOUISIANA

CITY           SKY/WX    TMP DP  RH WIND       PRES   REMARKS
LAKE CHARLES   MOSUNNY   93  72  50 S8        29.93F HX 101
LAFAYETTE      SUNNY     95  69  42 E3        29.93F HX 100
PATTERSON      MOSUNNY   84  73  70 W8        29.96S
SALT POINT       N/A     91  78  65 MISG      29.94R HX 106
NEW IBERIA     MOSUNNY   97  69  40 VRB3      29.93F HX 103
CHENAULT AIRPK NOT AVBL

$$

LAZ027-028-042300-
CENTRAL LOUISIANA

CITY           SKY/WX    TMP DP  RH WIND       PRES   REMARKS
FORT POLK      MOSUNNY   96  67  38 SW8       29.92F HX  99
ALEXANDRIA INT SUNNY     97  66  36 CALM      29.91S HX 100
ALEXANDRIA     SUNNY     99  68  36 S5        29.93F HX 104

$$

LAZ001-002-042300-
NORTHWEST LOUISIANA

CITY           SKY/WX    TMP DP  RH WIND       PRES   REMARKS
SHREVEPORT     MOSUNNY  100  59  25 SE12      29.91F HX 100
BARKSDALE AFB  SUNNY     99  62  29 S8        29.91F HX 100
DTN SHREVEPORT MOSUNNY   98  63  31 E7        29.91F HX 100

$$

LAZ014-016-042300-
NORTHEAST LOUISIANA

CITY           SKY/WX    TMP DP  RH WIND       PRES   REMARKS
MONROE         MOSUNNY   98  66  34 VRB3      29.92F HX 101
TALLULAH       SUNNY     99  65  32 N3        29.92F HX 102

$$




USA.gov is the U.S. government's official web portal to all federal, state and local government web resources and services.